Location: Cerezo de Arriba
(41.2389°N, 3.5585°W)
Time: 16:06:49
(UTC+00:00)

SPOT 3 Rocket - Pass Details

Date: 19 May 2025
Orbit: 775 x 790 km, 98.5° (Epoch: 23 June)

Event Time Altitude Azimuth Distance (km) Brightness Sun altitude
Exits shadow 21:43:39 39° 160° (SSE) 1,153 3.9 -19.9°
Maximum altitude 21:45:37 85° 75° (ENE) 786 3.4 -20.2°
Drops below altitude 10° 21:50:47 10° 348° (NNW) 2,333 7.0 -20.7°
Sets 21:53:06 0° 348° (NNW) 3,264 7.9 -21.0°
